Simultaneous Nadir Overpasses (SNOs) Predictions

Prediction of SNOs between GOES-16 and METOP-B Satellite Orbit:

Table of predicted SNOs for the next 14.0 days since TLE Epoch: 6/4/2022
Index Date Time (GOES-16) GOES-16 Lat,Lon METOP-B Lat,Lon Distance(km) Time Diff (sec)
1 06/05/2022 14:41:40 0.04, -75.20 0.70, -78.11 332.34 80
2 06/06/2022 14:23:41 0.04, -75.21 -0.45, -73.13 237.12 80
3 06/08/2022 02:40:03 -0.03, -75.20 -0.57, -77.73 287.35 80
4 06/09/2022 02:22:03 -0.03, -75.21 0.52, -72.73 282.48 80
5 06/10/2022 14:38:16 0.03, -75.24 0.47, -77.30 234.83 80
6 06/11/2022 14:20:16 0.03, -75.25 -0.62, -72.30 335.15 80
7 06/13/2022 02:39:17 -0.03, -75.25 -0.39, -76.91 188.78 80
8 06/14/2022 02:15:58 -0.02, -75.26 0.71, -71.91 381.08 80
9 06/15/2022 14:34:50 0.02, -75.28 0.28, -76.48 136.24 80
10 06/16/2022 14:16:51 0.01, -75.29 -0.82, -71.48 433.81 80
11 06/18/2022 02:35:52 -0.01, -75.30 -0.19, -76.09 89.38 80
